Home   Weather   Altdorf   Past weeks

Flag for Switzerland Past Weather in Altdorf, Uri, Switzerland — Yesterday and Last 2 Weeks

Now
59 °F

Cool.


Feels Like: 59 °F
Forecast: 58 / 78 °F
Wind: 1 mph from South

Location: Altdorf

Current Time: Aug 31, 2016 at 2:33:23 AM

Latest Report: Aug 31, 2016 at 1:00 AM


Visibility: N/A

Pressure: 30.14 "Hg

Humidity: 94%

Dew Point: 57 °F

Location of AltdorfLocation

Past Weather in Altdorf — Graph

°F

Altdorf Temperature Yesterday

Maximum temperature yesterday: 74 °F (at 4:00 PM)
Minimum temperature yesterday: 60 °F (at 6:00 AM)
Average temperature yesterday: 66 °F

High & Low Weather Summary for the Past Weeks

 TemperatureHumidityPressure
High87 °F (Aug 26, 4:00 PM)99% (Aug 19, 12:00 AM)30.39 "Hg (Aug 19, 12:00 AM)
Low51 °F (Aug 22, 7:00 AM)45% (Aug 26, 4:00 PM)29.82 "Hg (Aug 18, 1:00 PM)
Average67 °F80%30.07 "Hg
* Reported Aug 16 1:00 AM — Aug 31 1:00 AM, Altdorf, Weather by CustomWeather, © 2016

Note: Actual official high and low records may vary slightly from our data, if they occured in-between our weather recording intervals... More about our weather records

Advertising

Altdorf Weather History for the Previous 24 Hours

Scroll right to see more
 ConditionsComfort  
Time TempWeatherWind HumidityBarometerVisibility
1:00 AM
Wed, Aug 31
59 °FCool.1 mph94%30.14 "HgN/A
12:00 AM61 °FCool.2 mph94%30.13 "HgN/A
11:00 PM
Tue, Aug 30
62 °FOvercast.3 mph91%30.14 "Hg9 mi
10:00 PM65 °FMild.2 mph88%30.14 "HgN/A
9:00 PM67 °FMild.No wind82%30.13 "HgN/A
8:00 PM67 °FOvercast.1 mph88%30.11 "Hg12 mi
7:00 PM70 °FMild.2 mph75%30.09 "HgN/A
6:00 PM72 °FMild.3 mph68%30.10 "HgN/A
5:00 PM72 °FPartly sunny.5 mph70%30.10 "Hg9 mi
4:00 PM74 °FMild.6 mph64%30.10 "HgN/A
3:00 PM73 °FMild.6 mph66%30.11 "HgN/A
2:00 PM72 °FPartly sunny.8 mph68%30.12 "Hg9 mi
1:00 PM70 °FMild.6 mph71%30.13 "HgN/A
12:00 PM70 °FMild.6 mph79%30.13 "HgN/A
11:00 AM68 °FPartly sunny.2 mph80%30.15 "Hg15 mi
10:00 AM65 °FMild.3 mph82%30.16 "HgN/A
9:00 AM62 °FMild.1 mph91%30.16 "HgN/A
8:00 AM61 °FOvercast.1 mph93%30.16 "Hg11 mi
7:00 AM60 °FCool.2 mph96%30.16 "HgN/A
6:00 AM60 °FCool.3 mph97%30.15 "HgN/A
5:00 AM61 °FPassing clouds.1 mph96%30.15 "Hg12 mi
4:00 AM62 °FCool.1 mph97%30.16 "HgN/A
3:00 AM62 °FCool.2 mph98%30.17 "HgN/A
2:00 AM62 °FOvercast.1 mph98%30.18 "Hg9 mi
Weather by CustomWeather, © 2016

See weather overviewHow to use our weather pages